This is the latest recevied weather packets stored in our database for station/object SP2FH-13. If no packets are shown the sender has not sent any weather packets the latest 10 day(s).
| Time | Temp. | Humidity | Pressure | Rain* | Wind** | Luminosity | Snow |
|---|---|---|---|---|---|---|---|
| 1777731550 | 26.67° C | 22% | 1009.5 hPa | - | - | 414 W/m² | - |
| 1777731249 | 26.11° C | 21% | 1009.5 hPa | - | - | 429 W/m² | - |
| 1777730948 | 25.56° C | 25% | 1009.6 hPa | - | - | 444 W/m² | - |
| 1777730647 | 25° C | 25% | 1009.6 hPa | - | - | 457 W/m² | - |
| 1777730346 | 25° C | 25% | 1009.7 hPa | - | - | 470 W/m² | - |
| 1777730045 | 26.11° C | 23% | 1009.7 hPa | - | - | 489 W/m² | - |
| 1777729744 | 25.56° C | 22% | 1009.7 hPa | - | - | 500 W/m² | - |
| 1777729443 | 25° C | 23% | 1009.8 hPa | - | - | 510 W/m² | - |
| 1777729142 | 26.11° C | 24% | 1009.8 hPa | - | - | 520 W/m² | - |
| 1777728841 | 26.67° C | 23% | 1009.9 hPa | - | - | 528 W/m² | - |
| 1777728540 | 26.11° C | 23% | 1009.9 hPa | - | - | 537 W/m² | - |
| 1777728239 | 26.67° C | 24% | 1010 hPa | - | - | 547 W/m² | - |
| 1777727938 | 26.67° C | 22% | 1010 hPa | - | - | 561 W/m² | - |
| 1777727637 | 25.56° C | 23% | 1010.1 hPa | - | - | 571 W/m² | - |
| 1777727336 | 25.56° C | 23% | 1010.1 hPa | - | - | 584 W/m² | - |
| 1777727035 | 25.56° C | 24% | 1010.2 hPa | - | - | 593 W/m² | - |
| 1777726735 | 25° C | 23% | 1010.3 hPa | - | - | 606 W/m² | - |
| 1777726434 | 25° C | 24% | 1010.3 hPa | - | - | 612 W/m² | - |
| 1777726133 | 26.11° C | 25% | 1010.4 hPa | - | - | 623 W/m² | - |
| 1777725831 | 25.56° C | 25% | 1010.5 hPa | - | - | 630 W/m² | - |
| 1777725530 | 25° C | 26% | 1010.6 hPa | - | - | 635 W/m² | - |
| 1777725230 | 25° C | 25% | 1010.6 hPa | - | - | 643 W/m² | - |
| 1777724928 | 25° C | 26% | 1010.7 hPa | - | - | 653 W/m² | - |
| 1777724628 | 24.44° C | 27% | 1010.8 hPa | - | - | 657 W/m² | - |
| 1777724327 | 24.44° C | 25% | 1010.8 hPa | - | - | 665 W/m² | - |
* Rain since midnight (hover to see other rain measurements)
** Current wind speed in m/s (hover to see current wind gust speed)